Regional Weather Roundup
Issued by NWS

Home | Current Version | Previous Version | Text Only | Print | Product List | Glossary On
Versions: 1 2 3 4 5 6 7 8 9 10 11 12 13 14 15 16 17 18 19 20 21 22 23 24 25 26 27 28 29 30 31 32 33 34 35 36 37 38 39 40 41 42 43 44 45 46 47 48 49 50
000
ASUS45 KTFX 272110
RWRMT
MONTANA REGIONAL WEATHER ROUNDUP
NATIONAL WEATHER SERVICE GREAT FALLS MT
300 PM MDT TUE JUN 27 2017

NOTE: "FAIR" INDICATES FEW OR NO CLOUDS BELOW 12000 FEET WITH NO
SIGNIFICANT WEATHER AND/OR OBSTRUCTIONS TO VISIBILITY.

MTZ001>007-043-272200-
WEST OF THE DIVIDE

CITY           SKY/WX    TMP DP  RH WIND       PRES   REMARKS
KALISPELL      SUNNY     81  41  24 VRB7      29.78F
MISSOULA       SUNNY     82  40  22 W21G29    29.83F
BUTTE          LGT RAIN  69  46  43 NW12      29.94F
MULLAN PASS    MOSUNNY   63  42  46 VRB6      30.02R
ANACONDA         N/A     72  45  37 NW15      29.90F
DEER LODGE       N/A     70  52  52 NW7       29.91F
EUREKA           N/A     79  34  19 CALM      29.79R
HAMILTON         N/A     75  48  38 N6        29.87F
$$

MTZ008-052>055-272200-
SOUTHWEST MONTANA

CITY           SKY/WX    TMP DP  RH WIND       PRES   REMARKS
BOZEMAN        MOSUNNY   74  44  34 SW8       29.90F
DILLON         CLOUDY    67  46  47 VRB6      29.93S
W YELLOWSTONE  CLOUDY    61  46  59 CALM      30.04S
ENNIS          MOSUNNY   75  41  29 NW17      29.97F
THREE FORKS      N/A     77  46  33 N9        29.88F
$$

MTZ009-010-012-014-046-048-049-054-272200-
EAST SLOPES AND CENTRAL MONTANA

CITY           SKY/WX    TMP DP  RH WIND       PRES   REMARKS
CUT BANK       MOSUNNY   75  49  39 VRB6      29.79F
GREAT FALLS    PTSUNNY   82  48  30 NW13      29.77S
MALMSTROM AFB  PTSUNNY   72  58  60 E13       29.77F
HELENA         CLOUDY    81  42  25 W17G31    29.83F
CHOTEAU          N/A     75  46  35 NE9       29.82S
$$

MTZ011-013-016-021-045-047-050-051-272200-
NORTH CENTRAL MONTANA

CITY           SKY/WX    TMP DP  RH WIND       PRES   REMARKS
HAVRE          CLOUDY    80  51  36 NW17G24   29.73F
LEWISTOWN      CLOUDY    68  50  52 NW10G22   29.82S
N BAR RANCH    LGT RAIN  57  54  88 W13G22    29.88R
CHINOOK          N/A     73  54  49 W13       29.72R
FORT BENTON      N/A     79  48  34 MISG      29.76F
$$

MTZ017>020-022>027-061-062-272200-
NORTHEAST MONTANA

CITY           SKY/WX    TMP DP  RH WIND       PRES   REMARKS
GLASGOW        CLOUDY    84  50  30 NW20G30   29.61F
JORDAN           N/A     84  45  25 NW13      29.64S
SIDNEY         PTSUNNY   89  49  25 NW17      29.55R
WOLF POINT     CLOUDY    87  51  28 N15       29.59R
MALTA          MOSUNNY   77  54  44 N13G21    29.65R
PLENTYWOOD       N/A     81  50  34 NW24G33   29.58R
POPLAR           N/A     81  52  36 NW20G28   29.58R
$$

MTZ028>42-056>058-272200-
SOUTHCENTRAL AND SOUTHEAST MONTANA

CITY           SKY/WX    TMP DP  RH WIND       PRES   REMARKS
BAKER          CLOUDY    86  43  22 NW13G28   29.62S
BILLINGS       CLOUDY    83  44  25 NW22      29.75S
LIVINGSTON     CLOUDY    74  46  36 SW23      29.88S
MILES CITY     CLOUDY    85  43  22 NW13      29.65R
BIG TIMBER     PTSUNNY   70  46  43 W26       29.88F
ROUNDUP          N/A     68  53  58 NW10      29.71R
$$

REGIONAL REPORTS...DAKOTAS

CITY           SKY/WX    TMP DP  RH WIND       PRES   REMARKS
WILLISTON      CLOUDY    90  48  23 VRB7      29.54F
MINOT          PTSUNNY   86  55  34 S17G26    29.55F
DICKINSON      CLOUDY    87  47  24 SW9       29.53F
BEACH            N/A     88  43  20 NW17G24   29.61S
CROSBY           N/A     79  54  41 SW7       29.55S
TIOGA            N/A     79  54  41 W7        29.57S
WATFORD CITY     N/A     86  54  32 NW8       29.53F
BISMARCK       MOSUNNY   86  60  41 S17G30    29.58F
GRAND FORKS    MOSUNNY   80  45  28 S23G32    29.69F
FARGO          CLOUDY    75  45  34 S25G31    29.74F
BUFFALO SD       N/A     93  44  18 NW25G38   29.55S
RAPID CITY     MOSUNNY   91  45  20 N9G23     29.64F
$$

REGIONAL REPORTS...WYOMING/IDAHO/WASHINGTON

CITY           SKY/WX    TMP DP  RH WIND       PRES   REMARKS
GILLETTE       SUNNY     83  44  25 N10G26    29.76S
SHERIDAN       CLOUDY    77  48  35 NW13      29.79F
BUFFALO WY     CLOUDY    75  48  38 N16G23    29.84F
CODY           CLOUDY    61  42  49 SW18G28   29.91F
YELLOWSTONE LA   N/A     45  45 100 CALM      30.14R
IDAHO FALLS    LGT RAIN  69  48  47 SW14G21   29.94F
SALMON         CLOUDY    75  54  46 SW6       29.87F
BOISE          SUNNY     86  46  24 W13G21    29.88F
SPOKANE        PTSUNNY   78  42  27 W8G16     29.88F
$$

REGIONAL REPORTS...ALBERTA

CITY           SKY/WX    TMP DP  RH WIND       PRES   REMARKS
CALGARY        MOSUNNY   68  41  37 E7        29.76S
LETHBRIDGE     PTSUNNY   72  48  43 S8        29.75F
WATERTON GATE    N/A     73  39  29 SW16G25     N/A
MILK RIVER       N/A     73  52  46 N7          N/A
$$

REGIONAL REPORTS...SASKATCHEWAN

CITY           SKY/WX    TMP DP  RH WIND       PRES   REMARKS
SWIFT CURRENT  MOSUNNY   70  50  49 NW26G33   29.66R
REGINA         PTSUNNY   70  59  68 W25G32    29.56R
VAL MARIE        N/A     73  52  46 N17G24      N/A
ROCKGLEN         N/A     64  61  88 N9          N/A
$$



USA.gov is the U.S. government's official web portal to all federal, state and local government web resources and services.